map of TTT home
TTT - Airport
Location
City:  Taitung, Taiwan
Name:Fengnin
ICAO:RCFN
IATA:TTT

Details
Type:Airport (Aerodrome, Airfield)
Use:Public/Civil
Latitude:2245'18"N (22.754986)
Longitude:12106'06"E (121.101681)
Datum:WGS 1984
Elevation:143 ft (44 m)
Variation:3.84W (WMM2015 magnetic declination)
-0.09 annual change
Runways:1
Longest:8002 × 148 ft (2439 × 45 m), paved

Time
Time Zone:UTC+8
Local Time:

Weather
METAR:RCFN 272200Z 32005KT 300V010 9999 FEW020 SCT040 17/13 Q1024 NOSIG RMK A3024
TAF:RCFN 271700Z 2718/2818 34005KT 9999 FEW015 BKN050
BECMG 2801/2803 10008KT
BECMG 2810/2812 35005KT

Related Locations
Nearby:
Farthest:VMI: 12366 mi / 19902 km
Puerto Vallemi [Dr. Juan Plate Airport], 1, PY

Find:

   beyond  
but within

Other Information
Maps:
NOTAMs:
Links:
Sources:

  
flag of Taiwan   

Sectional Chart

Flight Planning
at skyvector.com

Satellite Image

Google Maps Satellite view

 

Copyright © 2004-2017 Karl L. Swartz. All rights reserved.
The Great Circle Mapper name and logo are trademarks of the Great Circle Mapper.
All other trademarks mentioned herein belong to their respective owners.
Please see credits for attibutions and further copyright information.

  Follow gcmap on Facebook Follow gcmap on Twitter Follow gcmap on Google+ GCmap on LinkedIn

hCard Microformat

Geo Microformat